Location: Las Vegas
(36.1750°N, 115.1360°W)
Time: 06:29:24
(UTC-07:00)

Amateur Radio Satellites - All Passes

Search period start: 16 August 2017 05:59
Search period end: 17 August 2017 05:59
Location: Las Vegas, 36.1750°N, 115.1360°W

Satellite Date Start Highest point End Downlink Frequencies (MHz)
Time Altitude Azimuth
STRAND 1 16 Aug 06:13:58 06:17:25 19° 65° (ENE) 06:20:52 437.568
DOVE 4 16 Aug 06:15:56 06:20:36 77° 284° (WNW) 06:24:58 437.250
STARS 16 Aug 06:17:05 06:20:45 26° 263° (W) 06:24:26 437.465
KAITUO 1B 16 Aug 06:18:22 06:21:30 24° 96° (E) 06:24:37 145.475/437.950
LilacSat-2 16 Aug 06:19:55 06:23:32 37° 98° (E) 06:27:07 437.200
XW-2D 16 Aug 06:30:55 06:34:40 51° 100° (E) 06:38:25 145.860 - 145.880
HO-68 16 Aug 06:32:40 06:36:33 15° 91° (E) 06:40:25 435.675
AO-85 16 Aug 06:35:15 06:39:13 82° 121° (ESE) 06:43:08 145.980
XW-2B 16 Aug 06:41:44 06:45:34 69° 101° (E) 06:49:22 145.730 - 145.750
BEESAT 3 16 Aug 06:46:40 06:50:31 46° 303° (WNW) 06:54:25 437.485
BEESAT 2 16 Aug 06:47:47 06:51:38 51° 116° (ESE) 06:55:34 435.950
AO-7 16 Aug 06:56:53 06:59:25 12° 312° (NW) 07:01:59 .
NUDT-PHONESAT 16 Aug 06:58:53 07:02:38 85° 100° (E) 07:06:23 437.300
XW-2C 16 Aug 07:00:33 07:04:20 63° 284° (WNW) 07:08:08 145.795 - 145.815
CUTE 1.7 + AOD 2 16 Aug 07:10:38 07:14:06 24° 95° (E) 07:17:33 437.475
XW-2F 16 Aug 07:17:25 07:21:00 39° 286° (WNW) 07:24:35 145.980 - 146.000
AAUSAT CUBESAT 2 16 Aug 07:36:55 07:38:30 12° 92° (E) 07:40:05 437.432
CUTE-I 16 Aug 07:38:01 07:43:04 46° 289° (WNW) 07:48:06 437.470
PCSat 16 Aug 07:38:25 07:40:41 13° 45° (NE) 07:42:58 145.827
STRAND 1 16 Aug 07:51:16 07:56:11 47° 260° (W) 08:01:08 437.568
XW-2A 16 Aug 07:51:46 07:54:54 33° 98° (E) 07:58:00 145.665 - 145.685
KAITUO 1B 16 Aug 07:52:36 07:55:18 19° 290° (WNW) 07:58:00 145.475/437.950
LilacSat-2 16 Aug 07:55:35 07:57:26 13° 292° (WNW) 07:59:17 437.200
SO-50 16 Aug 08:00:11 08:01:48 12° 44° (NE) 08:03:25 436.795
CUBEBUG 2 16 Aug 08:01:22 08:05:23 46° 99° (E) 08:09:29 437.445
UWE-3 16 Aug 08:05:42 08:09:22 29° 97° (E) 08:13:06 435.000/436.395/437.385
SEEDS 16 Aug 08:08:18 08:12:34 72° 101° (E) 08:16:48 437.485
HO-68 16 Aug 08:17:46 08:24:56 82° 287° (WNW) 08:32:06 435.675
BEESAT 2 16 Aug 08:27:30 08:29:41 14° 313° (NW) 08:31:52 435.950
Oscar 11 16 Aug 08:37:45 08:41:16 23° 95° (E) 08:44:45 .
FO-29 16 Aug 08:42:23 08:49:46 49° 71° (ENE) 08:56:39 435.910
CUTE 1.7 + AOD 2 16 Aug 08:46:20 08:49:49 25° 290° (WNW) 08:53:19 437.475
ZACube-1 16 Aug 08:57:10 09:01:23 64° 101° (E) 09:05:41 437.345
TIGRISAT 16 Aug 08:59:07 09:02:11 19° 69° (ENE) 09:05:13 435.000
NO-84 16 Aug 09:08:32 09:09:47 12° 33° (NNE) 09:11:03 435.350 FM
AAUSAT CUBESAT 2 16 Aug 09:10:09 09:14:10 46° 286° (WNW) 09:18:09 437.432
PCSat 16 Aug 09:19:27 09:24:54 85° 64° (ENE) 09:30:19 145.827
AO-73 16 Aug 09:21:38 09:25:52 73° 284° (WNW) 09:30:11 145.935
XW-2A 16 Aug 09:26:28 09:27:15 11° 292° (WNW) 09:28:02 145.665 - 145.685
DELFI C3 16 Aug 09:29:54 09:32:51 20° 95° (E) 09:35:47 145.870
Tancredo 1 16 Aug 09:32:20 09:33:09 11° 128° (SE) 09:33:59 437.200
SO-50 16 Aug 09:38:16 09:42:51 87° 239° (WSW) 09:47:28 436.795
CUBEBUG 2 16 Aug 09:39:45 09:41:36 13° 293° (WNW) 09:43:28 437.445
UWE-3 16 Aug 09:42:33 09:45:38 20° 290° (WNW) 09:48:45 435.000/436.395/437.385
EO-88 16 Aug 09:55:03 09:57:58 22° 96° (E) 10:00:52 145.990 - 145.960
UNISAT 6 16 Aug 09:57:27 10:01:52 83° 256° (WSW) 10:06:14 437.425
M-CUBED/EXP-1 PRIME 16 Aug 09:58:17 10:01:09 17° 61° (ENE) 10:04:06 437.505
PRISM 16 Aug 10:03:51 10:08:00 85° 75° (ENE) 10:12:10 437.425
HO-68 16 Aug 10:08:10 10:11:33 14° 304° (NW) 10:14:57 435.675
O/OREOS (USA 219) 16 Aug 10:11:52 10:16:12 53° 106° (ESE) 10:20:33 437.305
Oscar 11 16 Aug 10:13:41 10:17:18 26° 290° (WNW) 10:20:53 .
Max Valier Satellite 16 Aug 10:22:18 10:26:00 73° 103° (ESE) 10:29:41 145.860
FO-29 16 Aug 10:28:01 10:34:46 32° 264° (W) 10:41:13 435.910
TIGRISAT 16 Aug 10:34:39 10:38:37 33° 262° (W) 10:42:33 435.000
NO-84 16 Aug 10:44:11 10:47:28 74° 228° (SW) 10:51:02 435.350 FM
ISS 16 Aug 10:47:28 10:49:59 21° 130° (SE) 10:52:30 437.550
DUCHIFAT 1 16 Aug 10:56:36 10:59:06 16° 67° (ENE) 11:01:37 145.980
RS-15 16 Aug 11:00:33 11:11:42 45° 107° (ESE) 11:23:02 29.354- 29.394
nSIGHT-1 16 Aug 11:01:58 11:04:55 32° 132° (SE) 11:07:52 .
DELFI C3 16 Aug 11:04:15 11:07:33 25° 289° (WNW) 11:10:49 145.870
Tancredo 1 16 Aug 11:05:14 11:08:04 46° 322° (NW) 11:10:55 437.200
PCSat 16 Aug 11:06:58 11:07:28 10° 258° (WSW) 11:08:00 145.827
EO-88 16 Aug 11:28:50 11:31:28 19° 290° (WNW) 11:34:06 145.990 - 145.960
AIST 2D 16 Aug 11:29:40 11:33:04 55° 260° (W) 11:36:29 435.315
M-CUBED/EXP-1 PRIME 16 Aug 11:31:01 11:35:06 44° 257° (WSW) 11:39:28 437.505
POLYITAN 1 16 Aug 11:36:27 11:40:36 60° 75° (ENE) 11:44:44 437.675
NANOSAT C BR1 16 Aug 11:36:50 11:40:55 53° 75° (ENE) 11:45:01 145.865
LO-87 16 Aug 11:41:32 11:45:03 65° 101° (E) 11:48:32 145.935 - 145.965
QB50P2 16 Aug 11:51:09 11:55:22 81° 256° (WSW) 11:59:36 145.880/145.840
O/OREOS (USA 219) 16 Aug 11:53:43 11:55:55 13° 303° (WNW) 11:58:08 437.305
EO-79 16 Aug 11:53:45 11:57:58 83° 259° (W) 12:02:12 145.935-145.965
ESTCUBE 1 16 Aug 12:01:49 12:06:21 65° 101° (ESE) 12:10:51 437.505/2401.250
ISS 16 Aug 12:23:18 12:26:18 32° 325° (NW) 12:29:18 437.550
DUCHIFAT 1 16 Aug 12:30:33 12:34:26 37° 261° (W) 12:38:20 145.980
VELOX 1 16 Aug 12:31:51 12:35:32 25° 96° (E) 12:39:10 145.980
nSIGHT-1 16 Aug 12:38:38 12:41:20 23° 328° (NNW) 12:44:01 .
JUGNU 16 Aug 12:44:05 12:46:36 13° 171° (S) 12:49:06 437.505
BUGSAT 1 16 Aug 12:51:02 12:55:11 86° 257° (WSW) 12:59:17 437.445
DX 1 16 Aug 12:52:36 12:53:31 11° 92° (E) 12:54:28 434.975-435.025
Oscar 19 16 Aug 12:56:06 13:00:56 44° 71° (ENE) 13:05:48 437.125/150
RS-15 16 Aug 13:12:05 13:23:57 54° 308° (NW) 13:36:01 29.354- 29.394
NANOSAT C BR1 16 Aug 13:16:14 13:16:54 10° 268° (W) 13:17:34 145.865
SPROUT 16 Aug 13:18:23 13:22:36 68° 284° (WNW) 13:26:47 437.525
50 SAT 16 Aug 13:20:40 13:23:42 31° 98° (E) 13:26:44 437.505
Gurwin Techsat 1B 16 Aug 13:28:09 13:33:22 58° 73° (ENE) 13:38:35 435.225
ESTCUBE 1 16 Aug 13:41:15 13:42:33 11° 296° (WNW) 13:43:49 437.505/2401.250
AO-7 16 Aug 14:04:48 14:11:48 31° 60° (ENE) 14:18:48 .
ITAMSAT 1 16 Aug 14:07:05 14:09:47 14° 63° (ENE) 14:12:28 435.822/435.867
VELOX 1 16 Aug 14:08:16 14:11:51 25° 291° (WNW) 14:15:26 145.980
UKube-1 16 Aug 14:14:38 14:18:56 67° 101° (ESE) 14:23:13 .
DX 1 16 Aug 14:25:44 14:30:01 56° 286° (WNW) 14:34:15 434.975-435.025
JUGNU 16 Aug 14:31:27 14:34:48 16° 181° (S) 14:38:08 437.505
Oscar 19 16 Aug 14:36:49 14:40:24 19° 266° (W) 14:44:01 437.125/150
MOZHAYETS 4 16 Aug 14:53:25 14:55:50 14° 92° (E) 14:58:16
50 SAT 16 Aug 14:54:53 14:56:02 11° 292° (WNW) 14:57:11 437.505
ITUPSAT 1 16 Aug 14:55:22 14:58:36 18° 94° (E) 15:01:50 437.325
BEESAT 3 16 Aug 15:05:47 15:09:33 39° 56° (NE) 15:13:14 437.485
AO-85 16 Aug 15:08:14 15:12:08 32° 55° (NE) 15:16:18 145.980
BEESAT 2 16 Aug 15:08:49 15:11:14 15° 48° (NE) 15:13:38 435.950
Gurwin Techsat 1B 16 Aug 15:10:41 15:13:37 15° 268° (W) 15:16:34 435.225
RS-15 16 Aug 15:32:02 15:40:15 19° 337° (NNW) 15:48:28 29.354- 29.394
ITAMSAT 1 16 Aug 15:43:28 15:48:39 65° 258° (WSW) 15:53:50 435.822/435.867
AO-7 16 Aug 15:55:55 16:04:04 57° 257° (WSW) 16:12:18 .
BEESAT 16 Aug 16:00:53 16:05:39 85° 284° (WNW) 16:10:25 436.000
YUBILEINY 16 Aug 16:18:02 16:26:44 69° 92° (E) 16:35:26 435.215
JUGNU 16 Aug 16:20:53 16:22:59 12° 191° (S) 16:25:05 437.505
SRMSAT 16 Aug 16:21:30 16:24:45 15° 175° (S) 16:28:01 437.500
MOZHAYETS 4 16 Aug 16:28:47 16:33:12 48° 286° (WNW) 16:37:37
ITUPSAT 1 16 Aug 16:32:05 16:36:32 40° 288° (WNW) 16:41:00 437.325
CUBESAT XI-V 16 Aug 16:35:23 16:39:45 36° 98° (E) 16:44:04 437.345
BEESAT 3 16 Aug 16:44:35 16:46:43 14° 251° (WSW) 16:48:50 437.485
BEESAT 2 16 Aug 16:45:21 16:49:13 46° 245° (WSW) 16:53:03 435.950
AO-85 16 Aug 16:48:52 16:52:24 23° 248° (WSW) 16:56:08 145.980
LilacSat-2 16 Aug 17:00:45 17:02:33 13° 68° (ENE) 17:04:22 437.200
XW-2D 16 Aug 17:10:31 17:12:57 17° 69° (ENE) 17:15:23 145.860 - 145.880
KKS-1 16 Aug 17:15:43 17:19:56 42° 100° (E) 17:24:07 437.445
DOVE 4 16 Aug 17:17:05 17:22:22 78° 76° (ENE) 17:27:39 437.250
ISS 16 Aug 17:17:39 17:19:19 13° 25° (NNE) 17:20:59 437.550
CUTE-I 16 Aug 17:18:09 17:22:29 26° 67° (ENE) 17:26:49 437.470
XW-2B 16 Aug 17:20:54 17:23:47 21° 71° (ENE) 17:26:41 145.730 - 145.750
Tancredo 1 16 Aug 17:30:11 17:32:58 43° 37° (NE) 17:35:45 437.200
nSIGHT-1 16 Aug 17:31:56 17:34:07 17° 28° (NNE) 17:36:18 .
NUDT-PHONESAT 16 Aug 17:35:49 17:38:46 23° 71° (ENE) 17:41:45 437.300
XW-2C 16 Aug 17:39:01 17:42:29 37° 74° (ENE) 17:45:58 145.795 - 145.815
RS-15 16 Aug 17:52:37 17:59:53 17° 15° (NNE) 18:06:59 29.354- 29.394
XW-2F 16 Aug 17:55:04 17:58:43 59° 75° (ENE) 18:02:24 145.980 - 146.000
CUTE 1.7 + AOD 2 16 Aug 18:02:13 18:04:01 13° 66° (ENE) 18:05:49 437.475
STARS 16 Aug 18:08:01 18:12:22 68° 102° (ESE) 18:16:41 437.465
SRMSAT 16 Aug 18:09:54 18:13:08 15° 185° (S) 18:16:22 437.500
CUBESAT XI-V 16 Aug 18:13:24 18:16:49 20° 292° (WNW) 18:20:14 437.345
YUBILEINY 16 Aug 18:17:35 18:24:12 23° 291° (WNW) 18:30:51 435.215
KAITUO 1B 16 Aug 18:28:38 18:32:15 59° 259° (W) 18:35:57 145.475/437.950
LilacSat-2 16 Aug 18:33:02 18:36:29 35° 262° (W) 18:39:58 437.200
HO-68 16 Aug 18:43:00 18:49:58 57° 70° (ENE) 18:56:56 435.675
XW-2D 16 Aug 18:43:43 18:46:53 26° 263° (W) 18:50:06 145.860 - 145.880
ISS 16 Aug 18:52:56 18:56:12 89° 29° (NNE) 18:59:26 437.550
KKS-1 16 Aug 18:53:27 18:56:06 16° 294° (WNW) 18:58:43 437.445
XW-2B 16 Aug 18:55:02 18:57:51 20° 265° (W) 19:00:41 145.730 - 145.750
CUBEBUG 2 16 Aug 18:56:59 19:00:42 28° 71° (ENE) 19:04:20 437.445
SEEDS 16 Aug 18:57:14 19:00:59 33° 72° (ENE) 19:04:46 437.485
CUTE-I 16 Aug 18:57:24 19:02:18 36° 262° (W) 19:07:14 437.470
DOVE 4 16 Aug 18:59:01 19:00:29 11° 271° (W) 19:01:57 437.250
UWE-3 16 Aug 19:00:56 19:03:43 17° 69° (ENE) 19:06:29 435.000/436.395/437.385
Tancredo 1 16 Aug 19:06:51 19:07:54 11° 232° (SW) 19:08:55 437.200
nSIGHT-1 16 Aug 19:07:34 19:10:44 56° 225° (SW) 19:13:53 .
NUDT-PHONESAT 16 Aug 19:10:07 19:12:36 17° 265° (W) 19:15:06 437.300
XW-2C 16 Aug 19:15:33 19:16:49 11° 268° (W) 19:18:05 145.795 - 145.815
Oscar 11 16 Aug 19:31:14 19:33:21 14° 66° (ENE) 19:35:28 .
CUTE 1.7 + AOD 2 16 Aug 19:35:18 19:39:22 48° 261° (W) 19:43:29 437.475
ZACube-1 16 Aug 19:50:28 19:54:14 33° 72° (ENE) 19:57:58 437.345
XW-2A 16 Aug 19:52:30 19:55:43 46° 260° (W) 19:58:56 145.665 - 145.685
AAUSAT CUBESAT 2 16 Aug 19:56:50 20:00:58 76° 76° (ENE) 20:05:08 437.432
STRAND 1 16 Aug 20:04:08 20:09:14 73° 102° (ESE) 20:14:19 437.568
RS-15 16 Aug 20:05:35 20:16:57 44° 47° (NE) 20:27:42 29.354- 29.394
AO-73 16 Aug 20:14:14 20:18:20 58° 75° (ENE) 20:22:23 145.935
O/OREOS (USA 219) 16 Aug 20:24:16 20:28:47 66° 69° (ENE) 20:33:19 437.305
HO-68 16 Aug 20:32:28 20:37:59 24° 265° (W) 20:43:32 435.675
CUBEBUG 2 16 Aug 20:33:57 20:37:16 21° 265° (W) 20:40:33 437.445
SEEDS 16 Aug 20:34:01 20:36:43 17° 267° (W) 20:39:27 437.485
UWE-3 16 Aug 20:36:03 20:39:55 33° 262° (W) 20:43:44 435.000/436.395/437.385
Max Valier Satellite 16 Aug 20:59:07 21:01:51 20° 71° (ENE) 21:04:36 145.860
Oscar 11 16 Aug 21:04:55 21:09:03 46° 261° (W) 21:13:12 .
ZACube-1 16 Aug 21:27:57 21:30:35 16° 266° (W) 21:33:12 437.345
FO-29 16 Aug 21:40:56 21:46:19 43° 98° (E) 21:51:17 435.910
STRAND 1 16 Aug 21:45:45 21:47:45 12° 298° (WNW) 21:49:44 437.568
DELFI C3 16 Aug 21:45:46 21:49:43 67° 259° (W) 21:53:44 145.870
PRISM 16 Aug 21:49:20 21:51:29 14° 93° (E) 21:53:36 437.425
UNISAT 6 16 Aug 21:52:04 21:55:34 24° 96° (E) 21:59:04 437.425
EO-88 16 Aug 22:02:35 22:06:11 67° 258° (WSW) 22:09:49 145.990 - 145.960
LO-87 16 Aug 22:15:44 22:18:09 17° 70° (ENE) 22:20:35 145.935 - 145.965
PCSat 16 Aug 22:17:36 22:20:43 16° 104° (ESE) 22:23:50 145.827
RS-15 16 Aug 22:18:15 22:29:41 56° 250° (WSW) 22:40:31 29.354- 29.394
TIGRISAT 16 Aug 22:27:57 22:32:11 58° 101° (E) 22:36:28 435.000
Max Valier Satellite 16 Aug 22:32:50 22:35:34 20° 265° (W) 22:38:19 145.860
ESTCUBE 1 16 Aug 22:58:31 23:02:45 42° 72° (ENE) 23:07:00 437.505/2401.250
AIST 2D 16 Aug 22:58:43 23:00:15 12° 93° (E) 23:01:46 435.315
M-CUBED/EXP-1 PRIME 16 Aug 23:13:24 23:16:11 17° 97° (E) 23:18:52 437.505
PRISM 16 Aug 23:23:02 23:26:53 39° 288° (WNW) 23:30:42 437.425
POLYITAN 1 16 Aug 23:25:57 23:27:25 12° 92° (E) 23:28:53 437.675
FO-29 16 Aug 23:26:55 23:31:00 21° 297° (WNW) 23:34:52 435.910
VELOX 1 16 Aug 23:27:06 23:30:01 17° 67° (ENE) 23:32:56 145.980
UNISAT 6 16 Aug 23:28:40 23:32:10 25° 290° (WNW) 23:35:43 437.425
QB50P2 16 Aug 23:39:22 23:42:26 19° 95° (E) 23:45:28 145.880/145.840
EO-79 16 Aug 23:41:50 23:44:48 19° 95° (E) 23:47:45 145.935-145.965
LO-87 16 Aug 23:48:27 23:51:23 23° 264° (W) 23:54:19 145.935 - 145.965
SO-50 16 Aug 23:49:47 23:54:12 56° 116° (ESE) 23:58:37 436.795
PCSat 16 Aug 23:58:11 00:03:32 60° 299° (WNW) 00:08:55 145.827
TIGRISAT 17 Aug 00:07:13 00:08:21 11° 295° (WNW) 00:09:30 435.000
SPROUT 17 Aug 00:08:31 00:12:44 61° 75° (ENE) 00:16:56 437.525
DUCHIFAT 1 17 Aug 00:16:46 00:20:40 38° 98° (E) 00:24:33 145.980
AIST 2D 17 Aug 00:30:21 00:33:29 31° 287° (WNW) 00:36:39 435.315
BUGSAT 1 17 Aug 00:36:32 00:38:57 15° 94° (E) 00:41:21 437.445
ESTCUBE 1 17 Aug 00:37:03 00:39:42 15° 267° (W) 00:42:22 437.505/2401.250
M-CUBED/EXP-1 PRIME 17 Aug 00:46:37 00:50:44 38° 293° (WNW) 00:54:36 437.505
NANOSAT C BR1 17 Aug 00:59:04 01:03:09 54° 286° (WNW) 01:07:14 145.865
POLYITAN 1 17 Aug 00:59:22 01:03:26 48° 286° (WNW) 01:07:28 437.675
VELOX 1 17 Aug 01:01:58 01:06:06 38° 261° (W) 01:10:18 145.980
UKube-1 17 Aug 01:06:16 01:10:17 39° 72° (ENE) 01:14:19 .
Oscar 19 17 Aug 01:11:07 01:14:47 19° 94° (E) 01:18:25 437.125/150
QB50P2 17 Aug 01:14:34 01:18:11 29° 289° (WNW) 01:21:49 145.880/145.840
EO-79 17 Aug 01:16:54 01:20:34 30° 289° (WNW) 01:24:13 145.935-145.965
DX 1 17 Aug 01:18:00 01:22:22 87° 78° (ENE) 01:26:47 434.975-435.025
50 SAT 17 Aug 01:20:58 01:24:17 49° 260° (W) 01:27:37 437.505
SO-50 17 Aug 01:32:12 01:34:59 16° 313° (NW) 01:37:46 436.795
Gurwin Techsat 1B 17 Aug 01:47:30 01:52:03 28° 96° (E) 01:56:34 435.225
DUCHIFAT 1 17 Aug 01:53:32 01:56:00 15° 293° (WNW) 01:58:25 145.980
MOZHAYETS 4 17 Aug 01:54:49 01:55:29 10° 63° (ENE) 01:56:09
NO-84 17 Aug 01:59:21 02:02:01 33° 129° (SE) 02:04:38 435.350 FM
ITUPSAT 1 17 Aug 02:00:04 02:03:01 17° 65° (ENE) 02:05:58 437.325
BUGSAT 1 17 Aug 02:10:46 02:14:22 33° 288° (WNW) 02:17:58 437.445
YUBILEINY 17 Aug 02:32:19 02:39:37 29° 72° (ENE) 02:46:51 435.215
UKube-1 17 Aug 02:43:52 02:46:25 15° 266° (W) 02:48:59 .
Oscar 19 17 Aug 02:49:19 02:54:16 44° 288° (WNW) 02:59:10 437.125/150
BEESAT 17 Aug 03:04:18 03:09:03 82° 74° (ENE) 03:13:49 436.000
Gurwin Techsat 1B 17 Aug 03:27:17 03:31:55 31° 291° (WNW) 03:36:33 435.225
MOZHAYETS 4 17 Aug 03:27:29 03:32:00 70° 259° (W) 03:36:33
ITUPSAT 1 17 Aug 03:35:52 03:40:26 46° 260° (W) 03:45:01 437.325
CUBESAT XI-V 17 Aug 03:36:14 03:40:04 26° 70° (ENE) 03:43:56 437.345
NO-84 17 Aug 03:37:51 03:39:29 14° 325° (NW) 03:41:07 435.350 FM
ITAMSAT 1 17 Aug 03:59:00 04:04:05 55° 101° (E) 04:09:07 435.822/435.867
AO-7 17 Aug 04:00:21 04:08:34 60° 103° (ESE) 04:16:42 .
KKS-1 17 Aug 04:11:11 04:15:01 29° 70° (ENE) 04:18:52 437.445
YUBILEINY 17 Aug 04:28:21 04:36:44 55° 270° (W) 04:45:07 435.215
BEESAT 3 17 Aug 04:54:48 04:56:29 12° 108° (ESE) 04:58:09 437.485
STARS 17 Aug 05:01:43 05:05:52 42° 73° (ENE) 05:10:02 437.465
CUBESAT XI-V 17 Aug 05:13:26 05:17:19 26° 264° (W) 05:21:14 437.345
DOVE 4 17 Aug 05:20:03 05:23:45 24° 94° (E) 05:27:16 437.250
AO-85 17 Aug 05:21:49 05:24:19 16° 111° (ESE) 05:26:48 145.980
CUTE-I 17 Aug 05:39:43 05:41:22 11° 91° (E) 05:43:00 437.470
ITAMSAT 1 17 Aug 05:39:53 05:43:03 17° 296° (WNW) 05:46:12 435.822/435.867
KKS-1 17 Aug 05:48:01 05:51:31 22° 264° (W) 05:55:03 437.445
